Home   Weather   Piešťany   Past weeks

Flag for Slovakia Past Weather in Piešťany, Slovakia — Yesterday and Last 2 Weeks

Now
77 °F

Sunny.


Feels Like: 78 °F
Forecast: 51 / 78 °F
Wind: 1 mph from North

Location: Piestany

Current Time: Aug 31, 2016 at 6:20:39 PM

Latest Report: Aug 31, 2016 at 6:00 PM


Visibility: 10 mi

Pressure: 30.18 "Hg

Humidity: 44%

Dew Point: 54 °F

Location of PiešťanyLocation

Past Weather in Piešťany — Graph

°F

Piešťany Temperature Yesterday

Maximum temperature yesterday: 77 °F (at 1:30 PM)
Minimum temperature yesterday: 57 °F (at 11:30 PM)
Average temperature yesterday: 68 °F

High & Low Weather Summary for the Past Weeks

 TemperatureHumidityPressure
High84 °F (Aug 28, 2:00 PM)100% (Aug 17, 6:00 AM)30.33 "Hg (Aug 17, 6:00 AM)
Low50 °F (Aug 18, 2:00 AM)37% (Aug 26, 3:30 PM)29.83 "Hg (Aug 18, 5:00 PM)
Average67 °F73%30.10 "Hg
* Reported Aug 16 5:00 PM — Aug 31 5:00 PM, Piešťany, Weather by CustomWeather, © 2016

Note: Actual official high and low records may vary slightly from our data, if they occured in-between our weather recording intervals... More about our weather records

Advertising

Piešťany Weather History for the Previous 24 Hours

Scroll right to see more
 ConditionsComfort  
Time TempWeatherWind HumidityBarometerVisibility
5:00 PM
Wed, Aug 31
77 °FSunny.5 mph44%30.18 "Hg10 mi
4:30 PM77 °FSunny.2 mph42%30.18 "Hg10 mi
4:00 PM75 °FSunny.2 mph44%30.18 "Hg10 mi
3:30 PM75 °FPassing clouds.3 mph44%30.21 "HgN/A
3:00 PM75 °FPassing clouds.5 mph44%30.21 "HgN/A
2:30 PM75 °FPassing clouds.6 mph44%30.21 "HgN/A
2:00 PM75 °FPassing clouds.5 mph47%30.21 "HgN/A
1:30 PM73 °FPassing clouds.5 mph47%30.24 "HgN/A
1:00 PM73 °FPassing clouds.7 mph47%30.24 "HgN/A
12:30 PM72 °FPassing clouds.5 mph47%30.24 "HgN/A
12:00 PM72 °FPassing clouds.3 mph50%30.24 "HgN/A
11:30 AM72 °FSunny.3 mph53%30.24 "Hg10 mi
11:00 AM70 °FSunny.2 mph50%30.27 "Hg10 mi
10:30 AM70 °FSunny.2 mph53%30.27 "Hg10 mi
10:00 AM66 °FSunny.3 mph60%30.27 "Hg10 mi
9:30 AM64 °FPassing clouds.8 mph60%30.27 "HgN/A
9:00 AM63 °FSunny.8 mph64%30.24 "Hg10 mi
8:30 AM61 °FSunny.8 mph68%30.24 "Hg10 mi
8:00 AM57 °FSunny.8 mph77%30.24 "Hg10 mi
7:30 AM55 °FSunny.8 mph77%30.24 "Hg10 mi
7:00 AM54 °FClear.6 mph82%30.24 "Hg10 mi
6:30 AM54 °FClear.6 mph82%30.24 "Hg10 mi
6:00 AM54 °FClear.5 mph82%30.24 "Hg10 mi
5:30 AM55 °FPassing clouds.7 mph77%30.24 "HgN/A
5:00 AM55 °FPassing clouds.7 mph77%30.24 "HgN/A
4:30 AM55 °FOvercast.7 mph77%30.24 "HgN/A
4:00 AM55 °FPassing clouds.8 mph77%30.24 "HgN/A
3:30 AM55 °FPassing clouds.9 mph77%30.24 "HgN/A
3:00 AM55 °FCool.7 mph77%30.24 "HgN/A
2:30 AM55 °FCool.7 mph77%30.24 "HgN/A
2:00 AM55 °FCool.7 mph77%30.24 "HgN/A
1:30 AM54 °FCool.7 mph82%30.24 "HgN/A
1:00 AM54 °FCool.6 mph82%30.24 "HgN/A
12:30 AM55 °FCool.10 mph82%30.24 "HgN/A
12:00 AM55 °FCool.8 mph82%30.24 "HgN/A
11:30 PM
Tue, Aug 30
57 °FCool.10 mph77%30.24 "HgN/A
11:00 PM59 °FCool.9 mph72%30.24 "HgN/A
10:30 PM59 °FCool.8 mph72%30.24 "HgN/A
10:00 PM61 °FClear.9 mph68%30.21 "Hg10 mi
9:30 PM63 °FClear.9 mph68%30.21 "Hg10 mi
9:00 PM63 °FClear.8 mph68%30.21 "Hg10 mi
8:30 PM64 °FSunny.8 mph64%30.21 "Hg10 mi
8:00 PM68 °FSunny.7 mph56%30.18 "Hg10 mi
7:30 PM70 °FSunny.8 mph53%30.18 "Hg10 mi
7:00 PM72 °FSunny.12 mph50%30.18 "Hg10 mi
6:30 PM73 °FSunny.13 mph47%30.18 "Hg10 mi
6:00 PM73 °FSunny.13 mph47%30.18 "Hg10 mi
Weather by CustomWeather, © 2016

See weather overviewHow to use our weather pages